period_start,C,m1,H,J0,J1,J2,J3,J4,J5,JA,JB,JC,JD,JJ,JK,JN,#
2016-04-20 00:00:38,0.10,1.15,0.00,13.61,18.47,22.48,15.21,50.09,1021.50,2070.05,3064.62,2888.37,3262.09,599.80,618.30,16.79,0000 0000 0000 0000 000000
2016-04-20 00:05:39,0.08,1.15,0.00,13.60,18.47,22.51,15.22,50.03,1021.50,2070.04,3062.80,2887.12,3260.52,600.08,618.66,16.84,0000 0000 0000 0000 000000
2016-04-20 00:10:40,0.07,1.16,0.00,13.65,18.47,22.49,15.18,49.97,1021.50,2070.04,3061.46,2886.16,3259.46,599.84,618.29,16.89,0000 0000 0000 0000 000000
2016-04-20 00:15:41,0.06,1.16,0.00,13.69,18.46,22.60,15.19,50.04,1021.50,2070.04,3060.33,2885.45,3258.53,600.04,618.29,16.94,0000 0000 0000 0000 000000
2016-04-20 00:20:43,0.06,1.16,0.00,13.64,18.45,22.59,15.21,49.99,1021.50,2070.06,3058.97,2884.59,3257.47,600.15,618.59,16.99,0000 0000 0000 0000 000000
2016-04-20 00:25:44,0.04,1.17,0.00,13.69,18.44,22.60,15.23,50.02,1021.50,2070.08,3057.84,2883.88,3256.55,600.42,618.76,17.04,0000 0000 0000 0000 000000
2016-04-20 00:30:46,0.07,1.17,0.00,13.76,18.44,22.62,15.24,50.02,1021.50,2070.13,3056.67,2883.01,3255.67,600.03,618.26,17.09,0000 0000 0000 0000 000000
2016-04-20 00:35:47,0.06,1.17,0.00,13.74,18.44,22.72,15.22,49.98,1021.50,2070.10,3055.41,2882.14,3254.53,600.00,618.32,17.14,0000 0000 0000 0000 000000
2016-04-20 00:40:48,0.06,1.18,0.00,13.73,18.44,22.68,15.26,50.02,1021.50,2070.13,3054.13,2881.31,3253.51,600.29,618.56,17.19,0000 0000 0000 0000 000000
2016-04-20 00:45:49,0.05,1.18,0.00,13.78,18.44,22.67,15.19,49.95,1021.51,2070.10,3053.08,2880.58,3252.62,600.08,618.23,17.24,0000 0000 0000 0000 000000
2016-04-20 00:50:50,0.03,1.18,0.00,13.81,18.44,22.65,15.19,49.94,1021.52,2070.12,3052.14,2880.00,3251.90,600.13,618.12,17.29,0000 0000 0000 0000 000000
2016-04-20 00:55:51,0.07,1.19,0.00,13.78,18.44,22.72,15.15,49.92,1021.52,2070.24,3051.21,2879.33,3251.07,599.78,617.95,17.34,0000 0000 0000 0000 000000
2016-04-20 01:00:52,0.02,1.19,0.00,13.81,18.44,22.74,15.20,50.04,1021.52,2070.16,3050.16,2878.93,3250.23,600.05,618.23,17.39,0000 0000 0000 0000 000000
2016-04-20 01:05:54,0.06,1.19,0.00,13.87,18.44,22.74,15.18,49.80,1021.54,2070.20,3049.25,2878.12,3249.55,600.15,618.12,17.44,0000 0000 0000 0000 000000
2016-04-20 01:10:55,0.05,1.19,0.00,13.84,18.44,22.78,15.21,49.90,1021.51,2070.17,3048.19,2877.52,3248.72,600.46,618.49,17.49,0000 0000 0000 0000 000000
2016-04-20 01:15:56,0.04,1.20,0.00,13.83,18.44,22.81,15.28,49.94,1021.52,2070.18,3047.14,2876.88,3247.86,600.20,618.24,17.54,0000 0000 0000 0000 000000
2016-04-20 01:20:58,0.05,1.20,0.00,13.89,18.45,22.76,15.19,49.88,1021.57,2070.20,3046.07,2876.07,3246.99,600.10,618.06,17.59,0000 0000 0000 0000 000000
2016-04-20 01:25:59,0.07,1.20,0.00,13.91,18.47,22.80,15.18,49.96,1021.59,2070.23,3045.00,2875.38,3246.07,599.75,617.63,17.64,0000 0000 0000 0000 000000
2016-04-20 01:31:00,0.07,1.20,0.00,13.86,18.47,22.90,15.15,49.96,1021.56,2070.17,3043.52,2874.36,3245.00,599.66,617.63,17.69,0000 0000 0000 0000 000000
2016-04-20 01:36:01,0.05,1.21,0.00,13.91,18.47,22.82,15.19,50.05,1021.55,2070.13,3042.38,2873.73,3244.07,599.81,617.68,17.74,0000 0000 0000 0000 000000
2016-04-20 01:41:02,0.04,1.21,0.00,13.98,18.48,22.87,15.18,50.02,1021.59,2070.13,3041.37,2873.02,3243.22,600.14,617.96,17.79,0000 0000 0000 0000 000000
2016-04-20 01:46:03,0.05,1.21,0.00,13.95,18.49,22.92,15.18,49.88,1021.72,2070.10,3040.36,2872.23,3242.34,599.61,617.50,17.84,0000 0000 0000 0000 000000
2016-04-20 01:51:04,0.05,1.21,0.00,13.95,18.49,22.90,15.17,49.88,1021.84,2070.06,3039.40,2871.61,3241.48,599.74,617.72,17.89,0000 0000 0000 0000 000000
2016-04-20 01:56:06,0.04,1.22,0.00,14.04,18.51,22.92,15.19,49.88,1021.93,2070.05,3038.21,2870.88,3240.59,600.04,617.88,17.94,0000 0000 0000 0000 000000
2016-04-20 02:01:07,0.05,1.22,0.00,14.05,18.52,22.91,15.24,49.88,1021.98,2070.02,3037.14,2870.06,3239.69,599.82,617.64,17.99,0000 0000 0000 0000 000000
2016-04-20 02:06:08,0.05,1.22,0.00,14.02,18.53,22.97,15.11,49.76,1021.99,2070.01,3036.17,2869.36,3238.90,599.77,617.68,18.04,0000 0000 0000 0000 000000
2016-04-20 02:11:09,0.04,1.23,0.00,14.02,18.54,22.96,15.27,49.84,1021.98,2070.01,3035.20,2868.78,3238.05,600.51,618.44,18.09,0000 0000 0000 0000 000000
2016-04-20 02:16:10,0.05,1.23,0.00,14.11,18.56,22.98,15.16,49.90,1021.93,2070.01,3034.22,2868.05,3237.24,600.27,618.01,18.14,0000 0000 0000 0000 000000
2016-04-20 02:21:12,0.06,1.23,0.00,14.11,18.57,23.02,15.18,49.98,1021.88,2070.00,3033.11,2867.29,3236.46,600.03,617.73,18.19,0000 0000 0000 0000 000000
2016-04-20 02:26:13,0.05,1.23,0.00,14.11,18.58,23.04,15.21,49.92,1021.86,2070.00,3032.09,2866.66,3235.64,599.95,617.65,18.24,0000 0000 0000 0000 000000
2016-04-20 02:31:14,0.04,1.24,0.00,14.18,18.59,23.06,15.18,49.92,1021.89,2070.00,3031.07,2865.98,3234.83,599.62,617.11,18.29,0000 0000 0000 0000 000000
2016-04-20 02:36:16,0.06,1.24,0.00,14.22,18.62,23.07,15.17,49.87,1021.92,2070.00,3030.04,2865.12,3233.97,600.02,617.40,18.34,0000 0000 0000 0000 000000
2016-04-20 02:41:17,0.05,1.24,0.00,14.21,18.64,23.07,15.11,49.88,1021.98,2070.00,3029.05,2864.42,3233.06,599.72,617.12,18.39,0000 0000 0000 0000 000000
2016-04-20 02:46:18,0.04,1.24,0.00,14.21,18.66,23.10,15.23,50.12,1021.99,2070.00,3028.01,2863.84,3232.15,600.33,617.87,18.44,0000 0000 0000 0000 000000
2016-04-20 02:51:19,0.06,1.25,0.00,14.29,18.68,23.15,15.24,49.92,1021.99,2069.99,3026.86,2862.97,3231.20,600.29,617.60,18.49,0000 0000 0000 0000 000000
2016-04-20 02:56:21,0.06,1.25,0.00,14.33,18.70,23.14,15.08,49.82,1021.99,2069.99,3025.85,2862.10,3230.24,599.81,617.04,18.54,0000 0000 0000 0000 000000
2016-04-20 03:01:22,0.06,1.25,0.00,14.33,18.73,23.16,15.25,49.88,1022.01,2069.97,3024.72,2861.30,3229.35,600.24,617.47,18.59,0000 0000 0000 0000 000000
2016-04-20 03:06:23,0.05,1.26,0.00,14.37,18.75,23.20,15.13,49.78,1022.04,2069.92,3023.64,2860.55,3228.45,600.09,617.29,18.64,0000 0000 0000 0000 000000
2016-04-20 03:11:25,0.01,1.26,0.00,14.46,18.78,23.26,15.19,50.01,1022.15,2069.55,3022.47,2859.69,3227.46,599.75,616.73,18.69,0000 0000 0000 0000 000000
2016-04-20 03:16:26,0.05,1.26,0.00,14.45,18.80,23.27,15.21,50.06,1022.23,2069.28,3021.33,2858.86,3226.42,600.15,617.25,18.74,0000 0000 0000 0000 000000
2016-04-20 03:21:28,0.03,1.26,0.00,14.44,18.83,23.32,15.15,49.99,1022.27,2069.09,3020.29,2858.03,3225.48,600.16,617.36,18.79,0000 0000 0000 0000 000000
2016-04-20 03:26:29,0.05,1.26,0.00,14.50,18.86,23.35,15.13,49.92,1022.40,2069.01,3019.22,2857.24,3224.63,599.98,617.12,18.84,0000 0000 0000 0000 000000
2016-04-20 03:31:30,0.04,1.27,0.00,14.55,18.89,23.34,15.16,50.05,1022.43,2069.00,3018.30,2856.67,3223.85,599.88,616.98,18.89,0000 0000 0000 0000 000000
2016-04-20 03:36:31,0.04,1.27,0.00,14.54,18.92,23.40,15.20,50.07,1022.42,2069.00,3017.41,2855.97,3222.98,600.24,617.34,18.94,0000 0000 0000 0000 000000
2016-04-20 03:41:32,0.06,1.27,0.00,14.54,18.95,23.41,15.15,50.13,1022.44,2069.00,3016.43,2855.14,3222.07,599.81,617.02,18.99,0000 0000 0000 0000 000000
2016-04-20 03:46:33,0.05,1.28,0.00,14.60,18.98,23.48,15.18,50.06,1022.44,2068.99,3015.44,2854.41,3221.17,599.82,616.75,19.04,0000 0000 0000 0000 000000
2016-04-20 03:51:34,0.04,1.28,0.00,14.67,19.01,23.47,15.14,50.01,1022.46,2068.94,3014.40,2853.72,3220.30,599.89,616.69,19.09,0000 0000 0000 0000 000000
2016-04-20 03:56:36,0.04,1.28,0.00,14.68,19.04,23.49,15.14,50.05,1022.48,2068.80,3013.29,2852.94,3219.38,599.67,616.63,19.14,0000 0000 0000 0000 000000
2016-04-20 04:01:37,0.01,1.28,0.00,14.68,19.07,23.47,15.12,50.05,1022.48,2068.41,3012.27,2852.10,3218.50,600.03,616.77,19.19,0000 0000 0000 0000 000000
2016-04-20 04:06:38,0.04,1.28,0.00,14.73,19.10,23.57,15.16,50.00,1022.48,2068.08,3011.23,2851.41,3217.62,600.17,616.79,19.24,0000 0000 0000 0000 000000
2016-04-20 04:11:40,0.06,1.28,0.00,14.81,19.13,23.59,15.15,50.05,1022.48,2068.01,3010.09,2850.55,3216.61,599.76,616.32,19.29,0000 0000 0000 0000 000000
2016-04-20 04:16:41,0.07,1.29,0.00,14.79,19.17,23.62,15.08,49.99,1022.48,2068.00,3008.64,2849.71,3215.54,599.41,615.86,19.34,0000 0000 0000 0000 000000
2016-04-20 04:21:42,0.05,1.29,0.00,14.79,19.20,23.63,15.11,50.05,1022.48,2068.00,3007.52,2848.89,3214.52,599.37,615.87,19.39,0000 0000 0000 0000 000000
2016-04-20 04:26:44,0.05,1.29,0.00,14.84,19.23,23.67,15.18,50.17,1022.48,2067.99,3006.52,2848.08,3213.60,600.09,616.59,19.44,0000 0000 0000 0000 000000
2016-04-20 04:31:45,0.05,1.30,0.00,14.93,19.27,23.65,15.19,50.02,1022.48,2067.96,3005.54,2847.30,3212.76,600.26,616.49,19.49,0000 0000 0000 0000 000000
2016-04-20 04:36:46,0.05,1.30,0.00,14.94,19.30,23.74,15.09,50.08,1022.49,2067.93,3004.54,2846.64,3211.85,600.01,616.21,19.54,0000 0000 0000 0000 000000
2016-04-20 04:41:47,0.00,1.30,0.00,14.93,19.33,23.75,15.18,50.02,1022.50,2067.50,3003.41,2845.81,3210.87,600.46,616.75,19.59,0000 0000 0000 0000 000000
2016-04-20 04:46:48,0.01,1.30,0.00,14.94,19.37,23.77,15.15,50.06,1022.54,2067.06,3002.35,2845.02,3209.94,600.26,616.59,19.64,0000 0000 0000 0000 000000
2016-04-20 04:51:50,0.06,1.31,0.00,15.04,19.41,23.80,15.16,49.97,1022.57,2067.02,3001.30,2844.17,3209.04,599.86,616.01,19.69,0000 0000 0000 0000 000000
2016-04-20 04:56:51,0.05,1.31,0.00,15.08,19.44,23.86,15.15,49.89,1022.63,2067.00,3000.34,2843.68,3208.18,599.95,615.86,19.74,0000 0000 0000 0000 000000
2016-04-20 05:01:53,0.04,1.31,0.00,15.05,19.48,23.88,15.16,49.91,1022.79,2067.00,2999.34,2842.92,3207.23,600.38,616.52,19.79,0000 0000 0000 0000 000000
2016-04-20 05:06:54,0.06,1.31,0.00,15.04,19.51,23.87,15.09,49.90,1022.92,2066.99,2998.24,2842.09,3206.39,599.70,615.98,19.84,0000 0000 0000 0000 000000
2016-04-20 05:11:55,0.05,1.32,0.00,15.11,19.55,23.88,15.18,49.99,1022.95,2066.92,2997.16,2841.24,3205.37,600.26,616.45,19.89,0000 0000 0000 0000 000000
2016-04-20 05:16:57,0.01,1.32,0.00,15.22,19.58,23.91,15.19,49.94,1022.95,2066.54,2996.15,2840.59,3204.46,600.13,616.03,19.94,0000 0000 0000 0000 000000
2016-04-20 05:21:58,0.01,1.32,0.00,15.19,19.62,23.94,15.21,50.04,1022.96,2066.18,2995.17,2839.98,3203.66,600.47,616.48,19.99,0000 0000 0000 0000 000000
2016-04-20 05:26:59,0.04,1.32,0.00,15.20,19.65,24.00,15.17,49.98,1022.96,2066.05,2994.26,2839.19,3202.79,600.11,616.10,20.04,0000 0000 0000 0000 000000
2016-04-20 05:32:00,0.05,1.32,0.00,15.21,19.69,23.99,15.13,50.02,1022.96,2066.00,2993.16,2838.47,3201.91,599.87,615.90,20.09,0000 0000 0000 0000 000000
2016-04-20 05:37:02,0.05,1.33,0.00,15.28,19.73,24.03,15.13,49.96,1022.96,2066.00,2992.14,2837.76,3200.96,600.00,615.85,20.14,0000 0000 0000 0000 000000
2016-04-20 05:42:03,0.05,1.33,0.00,15.35,19.76,24.08,15.17,49.99,1022.96,2065.99,2991.17,2837.02,3200.05,599.98,615.63,20.19,0000 0000 0000 0000 000000
2016-04-20 05:47:04,0.05,1.33,0.00,15.33,19.79,24.07,15.08,49.90,1022.96,2065.97,2990.22,2836.29,3199.19,599.83,615.63,20.24,0000 0000 0000 0000 000000
2016-04-20 05:52:05,0.03,1.33,0.00,15.32,19.83,24.16,15.14,49.76,1022.97,2065.88,2989.24,2835.68,3198.47,600.03,615.90,20.30,0000 0000 0000 0000 000000
2016-04-20 05:57:06,-0.00,1.33,0.00,15.33,19.86,24.14,15.16,49.83,1022.97,2065.40,2988.23,2834.95,3197.53,600.24,615.89,20.35,0000 0000 0000 0000 000000
2016-04-20 06:02:08,0.03,1.33,0.00,15.42,19.90,24.16,15.03,49.58,1022.99,2065.09,2987.21,2834.15,3196.66,599.56,615.14,20.40,0000 0000 0000 0000 000000
2016-04-20 06:07:09,0.05,1.34,0.00,15.48,19.93,24.20,15.11,49.69,1023.02,2065.01,2986.14,2833.47,3195.79,600.00,615.41,20.45,0000 0000 0000 0000 000000
2016-04-20 06:12:10,0.04,1.34,0.00,15.46,19.96,24.25,15.10,49.73,1023.01,2065.00,2985.21,2832.88,3194.93,599.65,615.12,20.50,0000 0000 0000 0000 000000
2016-04-20 06:17:12,0.05,1.34,0.00,15.45,19.99,24.32,15.07,49.67,1023.00,2065.00,2984.21,2832.06,3194.03,599.93,615.42,20.55,0000 0000 0000 0000 000000
2016-04-20 06:22:13,0.06,1.35,0.00,15.46,20.03,24.28,15.10,49.77,1023.07,2064.97,2983.14,2831.29,3193.08,600.11,615.63,20.60,0000 0000 0000 0000 000000
2016-04-20 06:27:14,0.05,1.35,0.00,15.56,20.06,24.30,15.22,49.88,1023.14,2064.94,2982.10,2830.63,3192.23,600.51,615.85,20.65,0000 0000 0000 0000 000000
2016-04-20 06:32:15,0.01,1.35,0.00,15.62,20.08,24.35,15.12,49.77,1023.32,2064.67,2981.05,2829.92,3191.37,600.01,615.29,20.70,0000 0000 0000 0000 000000
2016-04-20 06:37:17,0.03,1.35,0.00,15.59,20.12,24.39,15.09,49.76,1023.44,2064.37,2980.06,2829.12,3190.50,599.89,615.35,20.75,0000 0000 0000 0000 000000
2016-04-20 06:42:18,0.04,1.35,0.00,15.59,20.15,24.44,15.17,49.79,1023.45,2064.05,2979.09,2828.38,3189.60,600.04,615.47,20.80,0000 0000 0000 0000 000000
2016-04-20 06:47:19,0.04,1.35,0.00,15.61,20.18,24.43,15.06,49.69,1023.45,2064.01,2978.05,2827.78,3188.76,599.86,615.20,20.85,0000 0000 0000 0000 000000
2016-04-20 06:52:21,0.05,1.36,0.00,15.71,20.20,24.44,15.07,49.69,1023.45,2064.00,2977.00,2827.02,3187.87,599.78,615.06,20.90,0000 0000 0000 0000 000000
2016-04-20 06:57:22,0.06,1.36,0.00,15.76,20.23,24.46,15.06,49.68,1023.45,2064.00,2976.02,2826.23,3186.98,600.01,615.16,20.95,0000 0000 0000 0000 000000
2016-04-20 07:02:23,0.05,1.36,0.00,15.74,20.26,24.57,15.09,49.85,1023.46,2063.99,2974.98,2825.61,3186.08,599.70,614.81,21.00,0000 0000 0000 0000 000000
2016-04-20 07:07:24,0.04,1.37,0.00,15.75,20.29,24.59,15.15,49.97,1023.50,2063.97,2973.95,2824.97,3185.23,599.98,614.99,21.05,0000 0000 0000 0000 000000
2016-04-20 07:12:25,0.05,1.37,0.00,15.76,20.32,24.62,15.13,49.92,1023.51,2063.92,2972.96,2824.15,3184.45,600.09,615.21,21.10,0000 0000 0000 0000 000000
2016-04-20 07:17:26,0.03,1.37,0.00,15.78,20.35,24.62,15.09,49.84,1023.67,2063.76,2972.03,2823.68,3183.74,599.97,615.09,21.15,0000 0000 0000 0000 000000
2016-04-20 07:22:28,0.01,1.37,0.00,15.87,20.38,24.62,15.14,49.90,1023.83,2063.42,2971.12,2823.01,3182.95,600.15,615.24,21.20,0000 0000 0000 0000 000000
2016-04-20 07:27:28,0.02,1.37,0.00,15.86,20.41,24.69,15.10,49.79,1023.85,2063.09,2970.20,2822.23,3182.09,599.95,615.05,21.25,0000 0000 0000 0000 000000
2016-04-20 07:32:29,0.04,1.37,0.00,15.84,20.43,24.69,15.19,49.93,1023.93,2063.04,2969.28,2821.81,3181.33,600.27,615.43,21.30,0000 0000 0000 0000 000000
2016-04-20 07:37:31,0.04,1.38,0.00,15.84,20.46,24.63,15.09,49.87,1023.94,2063.01,2968.41,2821.05,3180.54,600.16,615.54,21.35,0000 0000 0000 0000 000000
2016-04-20 07:42:32,0.05,1.38,0.00,15.85,20.48,24.66,15.14,49.68,1023.94,2063.01,2967.47,2820.46,3179.83,600.39,615.61,21.40,0000 0000 0000 0000 000000
2016-04-20 07:47:33,0.03,1.38,0.00,15.94,20.51,24.71,15.09,49.67,1023.94,2063.00,2966.61,2819.96,3179.00,599.80,614.79,21.45,0000 0000 0000 0000 000000
2016-04-20 07:52:35,0.05,1.38,0.00,15.98,20.52,24.74,15.12,49.90,1023.94,2063.00,2965.76,2819.14,3178.15,599.97,614.90,21.50,0000 0000 0000 0000 000000
2016-04-20 07:57:36,0.04,1.39,0.00,15.97,20.54,24.78,15.05,49.83,1023.95,2063.00,2964.83,2818.73,3177.41,600.21,615.14,21.55,0000 0000 0000 0000 000000
2016-04-20 08:02:37,0.05,1.39,0.00,15.97,20.57,24.77,15.14,49.93,1024.00,2062.98,2963.85,2817.92,3176.70,600.20,615.17,21.60,0000 0000 0000 0000 000000
2016-04-20 08:07:38,0.17,1.40,0.00,15.96,20.58,24.82,15.04,49.80,1024.13,2062.97,2961.51,2816.14,3174.36,599.73,614.79,21.65,0000 0000 0000 0000 000000
2016-04-20 08:12:40,0.15,1.40,0.00,15.98,20.60,24.86,15.09,49.85,1024.30,2062.91,2958.55,2813.75,3171.56,599.94,615.06,21.70,0000 0000 0000 0000 000000
2016-04-20 08:17:41,0.06,1.41,0.00,16.08,20.62,24.84,15.09,49.80,1024.36,2062.55,2956.56,2812.24,3169.65,600.16,615.01,21.75,0000 0000 0000 0000 000000
2016-04-20 08:22:42,0.09,1.41,0.00,16.05,20.63,24.88,15.06,49.73,1024.41,2062.11,2954.59,2810.55,3167.72,600.18,615.28,21.80,0000 0000 0000 0000 000000
2016-04-20 08:27:44,0.16,1.42,0.00,16.02,20.64,24.94,15.16,49.84,1024.42,2062.04,2952.08,2808.43,3165.18,599.86,614.98,21.85,0000 0000 0000 0000 000000
2016-04-20 08:32:45,0.14,1.43,0.00,15.99,20.67,24.94,15.09,49.83,1024.43,2062.02,2949.38,2806.21,3162.53,600.09,615.26,21.90,0000 0000 0000 0000 000000
2016-04-20 08:37:46,0.13,1.43,0.00,15.99,20.67,24.91,15.12,49.83,1024.43,2062.02,2947.10,2804.40,3160.38,599.89,615.00,21.95,0000 0000 0000 0000 000000
2016-04-20 08:42:48,0.13,1.44,0.00,16.02,20.69,24.92,15.15,49.68,1024.43,2062.00,2944.89,2802.59,3158.32,600.12,615.24,22.00,0000 0000 0000 0000 000000
2016-04-20 08:47:49,0.16,1.45,0.00,16.09,20.70,25.00,15.13,49.93,1024.43,2062.00,2942.39,2800.56,3155.89,600.28,615.25,22.05,0000 0000 0000 0000 000000
2016-04-20 08:52:50,0.09,1.46,0.00,16.08,20.71,24.97,15.13,49.88,1024.44,2061.99,2940.38,2799.04,3154.02,599.88,614.91,22.10,0000 0000 0000 0000 000000
2016-04-20 08:57:52,0.07,1.46,0.00,16.11,20.72,24.99,15.08,49.96,1024.44,2061.99,2938.98,2798.06,3152.89,599.94,614.87,22.15,0000 0000 0000 0000 000000
2016-04-20 09:02:53,0.06,1.46,0.00,16.12,20.74,24.98,15.13,49.89,1024.50,2061.99,2937.88,2797.21,3152.01,600.15,615.08,22.20,0000 0000 0000 0000 000000
2016-04-20 09:07:55,0.07,1.46,0.00,16.13,20.74,24.95,15.04,49.83,1024.74,2061.99,2936.70,2796.54,3151.06,599.72,614.79,22.25,0000 0000 0000 0000 000000
2016-04-20 09:12:56,0.07,1.47,0.00,16.17,20.76,24.97,15.13,49.98,1024.81,2061.97,2935.38,2795.59,3149.87,600.23,615.24,22.30,0000 0000 0000 0000 000000
2016-04-20 09:17:57,0.04,1.47,0.00,16.24,20.77,25.03,15.15,49.82,1024.82,2061.97,2934.07,2794.89,3148.93,599.68,614.55,22.35,0000 0000 0000 0000 000000
2016-04-20 09:22:59,0.05,1.48,0.00,16.24,20.79,25.05,15.14,49.98,1024.88,2061.91,2933.06,2794.07,3148.01,600.25,615.19,22.40,0000 0000 0000 0000 000000
2016-04-20 09:28:00,0.05,1.48,0.00,16.24,20.81,25.05,15.14,49.98,1024.91,2061.79,2931.98,2793.33,3147.07,600.00,614.95,22.45,0000 0000 0000 0000 000000
2016-04-20 09:33:01,0.13,1.48,0.00,16.24,20.82,24.99,15.04,49.98,1024.92,2061.41,2929.75,2791.58,3144.98,599.55,614.40,22.50,0000 0000 0000 0000 000000
2016-04-20 09:38:02,0.27,1.49,0.00,16.24,20.84,24.99,15.08,49.95,1024.92,2061.14,2925.44,2787.74,3140.52,599.84,614.82,22.55,0000 0000 0000 0000 000000
2016-04-20 09:43:03,0.12,1.50,0.00,16.25,20.84,24.96,15.08,49.98,1024.92,2061.08,2922.72,2785.46,3137.84,599.79,614.69,22.60,0000 0000 0000 0000 000000
2016-04-20 09:48:05,0.09,1.51,0.00,16.32,20.87,25.00,15.06,49.90,1024.93,2061.05,2920.97,2784.03,3136.16,599.85,614.62,22.65,0000 0000 0000 0000 000000
2016-04-20 09:53:07,0.11,1.51,0.00,16.33,20.88,25.07,15.17,49.92,1025.00,2061.01,2919.13,2782.54,3134.53,600.16,614.91,22.70,0000 0000 0000 0000 000000
2016-04-20 09:58:08,0.09,1.52,0.00,16.33,20.89,25.00,15.15,49.95,1025.11,2061.01,2917.40,2781.20,3132.98,600.44,615.26,22.75,0000 0000 0000 0000 000000
2016-04-20 10:03:09,0.08,1.52,0.00,16.32,20.90,25.01,15.09,49.86,1025.22,2061.00,2915.82,2780.04,3131.66,599.80,614.75,22.80,0000 0000 0000 0000 000000
2016-04-20 10:08:10,0.08,1.53,0.00,16.29,20.92,25.02,15.14,49.94,1025.38,2061.00,2914.21,2778.96,3130.43,600.04,615.10,22.85,0000 0000 0000 0000 000000
2016-04-20 10:13:11,0.09,1.53,0.00,16.32,20.93,25.05,15.09,49.86,1025.39,2061.00,2912.48,2777.82,3128.97,600.05,615.01,22.90,0000 0000 0000 0000 000000
2016-04-20 10:18:13,0.08,1.54,0.00,16.38,20.94,25.06,15.18,49.72,1025.40,2061.00,2910.84,2776.81,3127.72,600.28,615.22,22.95,0000 0000 0000 0000 000000
2016-04-20 10:23:14,0.06,1.54,0.00,16.34,20.94,25.08,15.07,49.92,1025.40,2060.99,2909.65,2776.00,3126.76,599.69,614.70,23.00,0000 0000 0000 0000 000000
2016-04-20 10:28:15,0.06,1.54,0.00,16.30,20.95,25.10,15.13,49.92,1025.40,2060.99,2908.53,2775.14,3125.90,599.80,614.79,23.05,0000 0000 0000 0000 000000
2016-04-20 10:33:17,0.05,1.55,0.00,16.27,20.97,25.08,15.09,49.69,1025.40,2060.98,2907.59,2774.65,3124.99,599.79,614.99,23.10,0000 0000 0000 0000 000000
2016-04-20 10:38:18,0.05,1.55,0.00,16.24,20.97,25.00,15.12,49.52,1025.40,2060.97,2906.40,2773.92,3124.07,599.93,615.15,23.15,0000 0000 0000 0000 000000
2016-04-20 10:43:19,0.06,1.55,0.00,16.28,20.97,25.01,15.07,49.52,1025.41,2060.97,2905.25,2773.09,3123.20,599.94,615.10,23.20,0000 0000 0000 0000 000000
2016-04-20 10:48:20,0.05,1.55,0.00,16.31,20.97,25.04,15.11,49.63,1025.41,2060.94,2904.13,2772.62,3122.46,600.06,615.28,23.25,0000 0000 0000 0000 000000
2016-04-20 10:53:22,0.03,1.56,0.00,16.29,20.98,25.06,15.07,49.73,1025.42,2060.95,2903.31,2772.00,3121.83,600.05,615.14,23.30,0000 0000 0000 0000 000000
2016-04-20 10:58:23,0.06,1.56,0.00,16.31,20.99,25.15,15.09,49.60,1025.43,2060.95,2902.23,2771.36,3121.02,600.07,615.17,23.35,0000 0000 0000 0000 000000
2016-04-20 11:03:24,0.04,1.56,0.00,16.38,20.99,25.19,15.14,49.67,1025.48,2060.93,2901.40,2770.89,3120.15,600.31,615.27,23.41,0000 0000 0000 0000 000000
2016-04-20 11:08:26,0.05,1.56,0.00,16.48,20.99,25.26,15.05,49.67,1025.49,2060.87,2900.49,2770.11,3119.48,599.85,614.63,23.46,0000 0000 0000 0000 000000
2016-04-20 11:13:27,0.06,1.57,0.00,16.60,20.99,25.24,15.06,49.67,1025.55,2060.92,2899.53,2769.55,3118.66,599.94,614.54,23.51,0000 0000 0000 0000 000000
2016-04-20 11:18:29,0.02,1.57,0.00,16.61,20.99,25.33,15.12,49.74,1025.59,2060.81,2898.62,2768.95,3117.88,600.05,614.60,23.56,0000 0000 0000 0000 000000
2016-04-20 11:23:30,0.05,1.57,0.00,16.54,20.99,25.34,15.08,49.74,1025.72,2060.64,2897.49,2768.11,3117.02,599.92,614.59,23.61,0000 0000 0000 0000 000000
2016-04-20 11:28:31,0.05,1.57,0.00,16.49,20.99,25.36,15.02,49.72,1025.77,2060.75,2896.61,2767.84,3116.16,599.64,614.51,23.66,0000 0000 0000 0000 000000
2016-04-20 11:33:33,0.06,1.58,0.00,16.39,20.99,25.36,15.15,49.53,1025.83,2060.83,2895.85,2767.07,3115.69,600.07,615.27,23.71,0000 0000 0000 0000 000000
2016-04-20 11:38:34,0.03,1.58,0.00,16.36,20.99,25.34,15.14,49.66,1025.87,2060.92,2894.92,2766.83,3115.00,599.95,615.22,23.76,0000 0000 0000 0000 000000
2016-04-20 11:43:36,0.05,1.58,0.00,16.25,20.99,25.31,15.24,49.70,1025.87,2060.92,2893.91,2766.06,3114.23,600.48,615.87,23.81,0000 0000 0000 0000 000000
2016-04-20 11:48:37,0.04,1.58,0.00,16.14,20.98,25.23,15.08,49.52,1025.88,2060.92,2893.02,2765.72,3113.61,599.78,615.42,23.86,0000 0000 0000 0000 000000
2016-04-20 11:53:39,0.05,1.59,0.00,16.05,20.97,25.21,15.18,49.71,1025.89,2060.94,2892.13,2765.03,3112.99,600.16,616.02,23.91,0000 0000 0000 0000 000000
2016-04-20 11:58:40,0.04,1.59,0.00,15.98,20.95,25.19,15.13,49.73,1025.89,2060.95,2891.28,2764.83,3112.28,599.97,615.96,23.96,0000 0000 0000 0000 000000
2016-04-20 12:03:42,0.04,1.59,0.00,15.98,20.94,25.05,15.16,49.87,1025.89,2060.95,2890.54,2764.10,3111.89,600.15,616.13,24.01,0000 0000 0000 0000 000000
2016-04-20 12:08:43,0.02,1.59,0.00,15.93,20.93,24.96,15.09,49.77,1025.89,2060.98,2889.82,2763.97,3111.08,600.08,616.28,24.06,0000 0000 0000 0000 000000
2016-04-20 12:13:45,0.05,1.59,0.00,15.86,20.92,25.04,15.12,49.81,1025.89,2060.99,2888.96,2763.30,3110.66,599.94,616.27,24.11,0000 0000 0000 0000 000000
2016-04-20 12:18:46,0.02,1.60,0.00,15.80,20.89,25.09,15.17,49.92,1025.89,2060.99,2888.12,2763.00,3110.03,600.01,616.52,24.16,0000 0000 0000 0000 000000
2016-04-20 12:23:47,0.02,1.60,0.00,15.75,20.87,24.96,15.17,49.98,1025.89,2060.99,2887.60,2762.90,3109.74,599.86,616.37,24.21,0000 0000 0000 0000 000000
2016-04-20 12:28:48,0.04,1.60,0.00,15.74,20.85,24.88,15.08,49.91,1025.92,2060.99,2886.93,2762.16,3109.03,599.76,616.36,24.26,0000 0000 0000 0000 000000
2016-04-20 12:33:49,0.03,1.60,0.00,15.72,20.83,24.91,15.28,49.92,1025.97,2061.00,2886.12,2762.00,3108.65,600.70,617.44,24.31,0000 0000 0000 0000 000000
2016-04-20 12:38:50,0.04,1.60,0.00,15.68,20.81,24.86,15.19,49.86,1026.02,2061.00,2885.58,2761.63,3108.00,600.13,617.00,24.36,0000 0000 0000 0000 000000
2016-04-20 12:43:51,0.04,1.61,0.00,15.64,20.79,24.86,15.17,49.92,1026.11,2061.01,2884.81,2761.02,3107.27,599.94,616.97,24.41,0000 0000 0000 0000 000000
2016-04-20 12:48:53,0.01,1.61,0.00,15.60,20.77,24.88,15.18,49.94,1026.10,2061.03,2884.05,2760.98,3106.99,599.93,616.91,24.46,0000 0000 0000 0000 000000
2016-04-20 12:53:54,0.05,1.61,0.00,15.61,20.74,24.76,15.19,49.79,1026.12,2061.10,2883.69,2760.41,3106.29,600.15,617.16,24.51,0000 0000 0000 0000 000000